Simultaneous Nadir Overpasses (SNOs) Predictions

Prediction of SNOs between AURA and NPP Satellite Orbit:

Table of predicted SNOs for the next 14.0 days since TLE Epoch: 12/22/2018
Index Date (AURA) Time (AURA) Lat,Lon (AURA) SZA (AURA ) Date (NPP) Time (NPP) Lat,Lon (NPP) SZA (NPP ) Distance(km) Time Diff (sec)
1 12/24/2018 10:35:30 79.46, -82.34 115.44 12/24/2018 10:34:18 79.46, -82.29 115.49 0.97 72
2 12/24/2018 11:24:51 -79.68, 86.90 64.88 12/24/2018 11:24:57 -79.68, 86.87 64.88 0.68 6
3 12/27/2018 02:52:00 79.45, 33.53 115.42 12/27/2018 02:51:13 79.45, 33.39 115.48 2.97 47
4 12/27/2018 03:41:18 -79.79,-156.39 65.06 12/27/2018 03:41:48 -79.79,-156.30 65.10 1.77 30
5 12/29/2018 19:08:26 79.60, 150.44 115.14 12/29/2018 19:08:03 79.60, 150.43 115.16 0.37 23
6 12/29/2018 19:57:48 -79.79, -40.52 65.14 12/29/2018 19:58:43 -79.78, -40.63 65.16 2.12 55
7 01/01/2019 10:36:45 -76.30, 82.96 61.00 01/01/2019 10:35:31 -76.52, 81.86 60.78 37.44 74
8 01/01/2019 11:24:52 79.71, -92.92 114.86 01/01/2019 11:24:53 79.71, -92.80 114.84 2.45 1
9 01/04/2019 02:52:02 -79.48,-146.31 65.01 01/04/2019 02:51:11 -79.47,-146.41 64.95 2.20 51




NCC Satellite Simultaneous Nadir Overpasses (SNOs) Prediction Service
